BEL6CT LEBL-EBBR

Flight info

Callsign BEL6CT
Flight time 1h 41m
Altitude 36000
Route OLOXO1R OLOXO DCT OKABI DCT TOU DCT ADABI DCT BOKNO UN858 VANAD UN874 BAMES UT191 PODEM UN873 BAZOS DCT BELDI DCT VEKIN Z173 ARVOL ARVOL9A
Aircraft A320/M-SDE3FGHIRWY/LB1

Departure

Time 2026-05-07 16:41
Airport Josep Tarradellas Barcelona-El Prat Airport (LEBL)

Arrival

Time 2026-05-07 18:22
Airport Brussels Airport (EBBR)
Time Latitude Longitude Altitude Speed Heading
2026-05-07 16:01 41.29060 2.08109 18 ft 0 kts 335°
2026-05-07 16:33 41.29057 2.08111 17 ft 2 kts 335°
2026-05-07 16:33 41.29041 2.08122 17 ft 3 kts 327°
2026-05-07 16:33 41.29025 2.08137 17 ft 3 kts 319°
2026-05-07 16:34 41.29010 2.08155 19 ft 3 kts 318°
2026-05-07 16:34 41.28995 2.08171 18 ft 3 kts 349°
2026-05-07 16:34 41.28987 2.08176 21 ft 1 kts 63°
2026-05-07 16:34 41.28987 2.08174 21 ft 0 kts 66°
2026-05-07 16:36 41.28999 2.08210 18 ft 9 kts 66°
2026-05-07 16:36 41.29026 2.08291 17 ft 9 kts 65°
2026-05-07 16:37 41.29007 2.08342 17 ft 8 kts 158°
2026-05-07 16:37 41.28940 2.08328 17 ft 13 kts 198°
2026-05-07 16:37 41.28859 2.08292 19 ft 12 kts 198°
2026-05-07 16:37 41.28786 2.08259 19 ft 11 kts 198°
2026-05-07 16:38 41.28714 2.08226 19 ft 12 kts 201°
2026-05-07 16:38 41.28655 2.08123 19 ft 16 kts 245°
2026-05-07 16:38 41.28610 2.07990 18 ft 16 kts 245°
2026-05-07 16:38 41.28563 2.07855 15 ft 16 kts 246°
2026-05-07 16:39 41.28512 2.07705 15 ft 20 kts 245°
2026-05-07 16:39 41.28457 2.07544 15 ft 18 kts 245°
2026-05-07 16:39 41.28409 2.07405 17 ft 15 kts 245°
2026-05-07 16:39 41.28341 2.07338 18 ft 12 kts 183°
2026-05-07 16:40 41.28270 2.07374 19 ft 11 kts 155°
2026-05-07 16:40 41.28239 2.07459 18 ft 12 kts 76°
2026-05-07 16:40 41.28261 2.07528 20 ft 14 kts 65°
2026-05-07 16:40 41.28448 2.08071 18 ft 92 kts 65°
2026-05-07 16:41 41.28666 2.08710 21 ft 131 kts 65°
2026-05-07 16:41 41.29101 2.09981 203 ft 160 kts 68°
2026-05-07 16:41 41.29438 2.11381 810 ft 160 kts 83°
2026-05-07 16:41 41.29449 2.12878 1452 ft 164 kts 95°
2026-05-07 16:42 41.29369 2.14423 1995 ft 171 kts 97°
2026-05-07 16:42 41.29239 2.16007 2546 ft 174 kts 99°
2026-05-07 16:42 41.29057 2.17603 3082 ft 176 kts 101°
2026-05-07 16:42 41.28836 2.19196 3568 ft 183 kts 100°
2026-05-07 16:43 41.28615 2.20964 3802 ft 205 kts 99°
2026-05-07 16:43 41.28389 2.22931 4134 ft 222 kts 98°
2026-05-07 16:43 41.28165 2.24999 4750 ft 228 kts 97°
2026-05-07 16:43 41.27963 2.27100 5460 ft 230 kts 91°
2026-05-07 16:44 41.28277 2.29161 6122 ft 230 kts 58°
2026-05-07 16:44 41.29371 2.30714 6592 ft 238 kts 25°
2026-05-07 16:44 41.30997 2.31303 6884 ft 257 kts
2026-05-07 16:44 41.32857 2.31523 7385 ft 272 kts
2026-05-07 16:45 41.34744 2.31741 8121 ft 277 kts
2026-05-07 16:45 41.36691 2.31975 8912 ft 281 kts
2026-05-07 16:45 41.38651 2.32218 9705 ft 285 kts
2026-05-07 16:45 41.40659 2.32472 10292 ft 297 kts
2026-05-07 16:46 41.42776 2.32742 10503 ft 320 kts
2026-05-07 16:46 41.45064 2.33143 10726 ft 341 kts
2026-05-07 16:46 41.47449 2.33694 11279 ft 350 kts
2026-05-07 16:46 41.49872 2.34319 11963 ft 355 kts
2026-05-07 16:47 41.52285 2.34961 12631 ft 359 kts
2026-05-07 16:47 41.54749 2.35608 13291 ft 364 kts
2026-05-07 16:47 41.57257 2.36249 13964 ft 368 kts
2026-05-07 16:47 41.59796 2.36883 14571 ft 372 kts
2026-05-07 16:48 41.62355 2.37499 15187 ft 375 kts
2026-05-07 16:48 41.64949 2.37503 15779 ft 373 kts 347°
2026-05-07 16:48 41.67378 2.36412 16353 ft 372 kts 329°
2026-05-07 16:48 41.69438 2.34334 16958 ft 370 kts 311°
2026-05-07 16:49 41.70909 2.31512 17540 ft 370 kts 294°
2026-05-07 16:49 41.71639 2.28261 18139 ft 371 kts 277°
2026-05-07 16:49 41.71968 2.24832 18709 ft 373 kts 276°
2026-05-07 16:49 41.72287 2.21382 19283 ft 374 kts 276°
2026-05-07 16:50 41.72603 2.17923 19867 ft 375 kts 276°
2026-05-07 16:50 41.72920 2.14452 20451 ft 376 kts 275°
2026-05-07 16:50 41.73238 2.10972 21022 ft 377 kts 275°
2026-05-07 16:50 41.73557 2.07484 21569 ft 378 kts 275°
2026-05-07 16:51 41.73876 2.03984 22115 ft 379 kts 275°
2026-05-07 16:51 41.74195 2.00472 22630 ft 381 kts 275°
2026-05-07 16:51 41.74513 1.96949 23151 ft 382 kts 274°
2026-05-07 16:51 41.74831 1.93411 23627 ft 383 kts 274°
2026-05-07 16:52 41.75152 1.89864 24026 ft 385 kts 276°
2026-05-07 16:52 41.75819 1.86373 24382 ft 392 kts 288°
2026-05-07 16:52 41.77124 1.83133 24734 ft 401 kts 301°
2026-05-07 16:52 41.79035 1.80351 25095 ft 412 kts 315°
2026-05-07 16:53 41.81466 1.78238 25424 ft 424 kts 329°
2026-05-07 16:53 41.84268 1.76876 25763 ft 432 kts 336°
2026-05-07 16:53 41.87140 1.75647 26096 ft 434 kts 336°
2026-05-07 16:53 41.90023 1.74424 26439 ft 436 kts 337°
2026-05-07 16:54 41.92926 1.73193 26769 ft 438 kts 337°
2026-05-07 16:54 41.95835 1.71955 27092 ft 440 kts 336°
2026-05-07 16:54 41.98762 1.70700 27411 ft 442 kts 336°
2026-05-07 16:54 42.01696 1.69436 27710 ft 444 kts 336°
2026-05-07 16:55 42.04645 1.68164 28010 ft 446 kts 336°
2026-05-07 16:55 42.07607 1.66885 28287 ft 448 kts 336°
2026-05-07 16:55 42.10577 1.65597 28584 ft 450 kts 336°
2026-05-07 16:55 42.13521 1.64319 28814 ft 451 kts 336°
2026-05-07 16:56 42.16554 1.63003 29067 ft 453 kts 336°
2026-05-07 16:56 42.19567 1.61699 29311 ft 456 kts 336°
2026-05-07 16:56 42.25583 1.59093 29813 ft 459 kts 336°
2026-05-07 16:57 42.28624 1.57770 30044 ft 460 kts 335°
2026-05-07 16:57 42.31676 1.56438 30210 ft 462 kts 335°
2026-05-07 16:57 42.34732 1.55100 30381 ft 462 kts 335°
2026-05-07 16:57 42.37789 1.53764 30613 ft 461 kts 336°
2026-05-07 16:58 42.40843 1.52430 30851 ft 460 kts 336°
2026-05-07 16:58 42.43942 1.51278 31085 ft 465 kts 343°
2026-05-07 16:58 42.47163 1.50666 31327 ft 469 kts 347°
2026-05-07 16:58 42.50402 1.50157 31576 ft 468 kts 347°
2026-05-07 16:59 42.53635 1.49641 31784 ft 467 kts 347°
2026-05-07 16:59 42.56863 1.49120 31991 ft 467 kts 347°
2026-05-07 16:59 42.60049 1.48604 32250 ft 466 kts 347°
2026-05-07 16:59 42.63262 1.48082 32510 ft 465 kts 347°
2026-05-07 17:00 42.66471 1.47562 32699 ft 464 kts 347°
2026-05-07 17:00 42.69682 1.47045 32946 ft 464 kts 347°
2026-05-07 17:00 42.72883 1.46531 33213 ft 463 kts 347°
2026-05-07 17:00 42.76084 1.46018 33467 ft 463 kts 347°
2026-05-07 17:01 42.79287 1.45504 33740 ft 463 kts 347°
2026-05-07 17:01 42.82475 1.44991 34019 ft 461 kts 347°
2026-05-07 17:01 42.85663 1.44477 34249 ft 460 kts 347°
2026-05-07 17:01 42.88841 1.43963 34434 ft 461 kts 347°
2026-05-07 17:02 42.92023 1.43445 34619 ft 461 kts 347°
2026-05-07 17:02 42.95210 1.42927 34803 ft 461 kts 348°
2026-05-07 17:02 42.98395 1.42410 34997 ft 461 kts 348°
2026-05-07 17:02 43.01582 1.41896 35152 ft 461 kts 348°
2026-05-07 17:03 43.04725 1.41390 35309 ft 461 kts 348°
2026-05-07 17:03 43.07913 1.40874 35457 ft 461 kts 348°
2026-05-07 17:03 43.11143 1.40347 35606 ft 462 kts 348°
2026-05-07 17:03 43.14290 1.39831 35745 ft 462 kts 348°
2026-05-07 17:04 43.17482 1.39306 35890 ft 461 kts 348°
2026-05-07 17:04 43.20668 1.38785 35931 ft 462 kts 348°
2026-05-07 17:04 43.27043 1.37745 35929 ft 461 kts 348°
2026-05-07 17:05 43.33414 1.36703 35935 ft 460 kts 349°
2026-05-07 17:05 43.39769 1.35647 35940 ft 460 kts 349°
2026-05-07 17:06 43.46125 1.34597 35944 ft 460 kts 349°
2026-05-07 17:06 43.52478 1.33553 35950 ft 460 kts 349°
2026-05-07 17:07 43.58836 1.32512 35960 ft 460 kts 349°
2026-05-07 17:07 43.65150 1.31463 35962 ft 460 kts 349°
2026-05-07 17:08 43.71488 1.30269 35964 ft 458 kts 347°
2026-05-07 17:08 43.77749 1.28642 35959 ft 457 kts 345°
2026-05-07 17:09 43.83984 1.26894 35954 ft 457 kts 345°
2026-05-07 17:09 43.90234 1.25219 35952 ft 458 kts 346°
2026-05-07 17:10 43.96498 1.23607 35951 ft 458 kts 346°
2026-05-07 17:10 44.02756 1.22005 35947 ft 458 kts 346°
2026-05-07 17:11 44.09019 1.20387 35955 ft 458 kts 346°
2026-05-07 17:11 44.15285 1.18752 35956 ft 457 kts 346°
2026-05-07 17:12 44.21532 1.17110 35959 ft 457 kts 346°
2026-05-07 17:12 44.27737 1.15476 35950 ft 457 kts 346°
2026-05-07 17:13 44.33985 1.13844 35954 ft 457 kts 346°
2026-05-07 17:13 44.40233 1.12205 35951 ft 457 kts 346°
2026-05-07 17:14 44.46476 1.10548 35957 ft 457 kts 346°
2026-05-07 17:14 44.52729 1.08891 35961 ft 457 kts 346°
2026-05-07 17:15 44.58988 1.07235 35964 ft 457 kts 347°
2026-05-07 17:15 44.65235 1.05575 35961 ft 457 kts 347°
2026-05-07 17:16 44.71482 1.03919 35961 ft 457 kts 347°
2026-05-07 17:16 44.77726 1.02260 35961 ft 457 kts 347°
2026-05-07 17:17 44.83929 1.00599 35960 ft 457 kts 347°
2026-05-07 17:17 44.90173 0.98911 35953 ft 457 kts 347°
2026-05-07 17:18 44.96426 0.97236 35962 ft 457 kts 347°
2026-05-07 17:18 45.02688 0.95555 35921 ft 459 kts 346°
2026-05-07 17:19 45.09022 0.93848 35934 ft 466 kts 346°
2026-05-07 17:19 45.15411 0.92122 35937 ft 468 kts 346°
2026-05-07 17:20 45.21818 0.90385 35942 ft 469 kts 345°
2026-05-07 17:20 45.28183 0.88655 35946 ft 469 kts 346°
2026-05-07 17:21 45.34592 0.86925 35950 ft 469 kts 346°
2026-05-07 17:21 45.41000 0.85178 35955 ft 469 kts 345°
2026-05-07 17:22 45.47407 0.83419 35954 ft 469 kts 345°
2026-05-07 17:22 45.53810 0.81660 35968 ft 469 kts 345°
2026-05-07 17:23 45.60211 0.79909 35960 ft 469 kts 345°
2026-05-07 17:23 45.66616 0.78156 35962 ft 469 kts 345°
2026-05-07 17:24 45.72984 0.76398 35974 ft 469 kts 345°
2026-05-07 17:24 45.79385 0.74610 35984 ft 469 kts 345°
2026-05-07 17:25 45.85789 0.72842 35977 ft 469 kts 345°
2026-05-07 17:25 45.92205 0.71082 35981 ft 469 kts 345°
2026-05-07 17:26 45.98614 0.69305 35981 ft 469 kts 345°
2026-05-07 17:26 46.04979 0.67517 35984 ft 469 kts 345°
2026-05-07 17:27 46.11374 0.65723 35984 ft 468 kts 345°
2026-05-07 17:27 46.17768 0.63930 35985 ft 468 kts 345°
2026-05-07 17:28 46.24157 0.62147 35987 ft 467 kts 345°
2026-05-07 17:28 46.30531 0.60337 35986 ft 467 kts 345°
2026-05-07 17:29 46.36916 0.58528 35985 ft 467 kts 345°
2026-05-07 17:29 46.43286 0.56745 35986 ft 467 kts 345°
2026-05-07 17:30 46.49657 0.54933 35988 ft 467 kts 345°
2026-05-07 17:30 46.56115 0.53763 35986 ft 472 kts 358°
2026-05-07 17:31 46.62645 0.55211 35989 ft 477 kts 10°
2026-05-07 17:31 46.69122 0.57351 35989 ft 477 kts 10°
2026-05-07 17:32 46.75601 0.59490 35990 ft 477 kts 10°
2026-05-07 17:32 46.80981 0.61277 35998 ft 477 kts 10°
2026-05-07 17:33 46.88499 0.63777 35997 ft 476 kts 10°
2026-05-07 17:33 46.94963 0.65917 35993 ft 476 kts 10°
2026-05-07 17:34 47.01424 0.68064 35996 ft 476 kts 10°
2026-05-07 17:34 47.07941 0.69525 35997 ft 472 kts
2026-05-07 17:35 47.14489 0.70199 35998 ft 472 kts
2026-05-07 17:35 47.21042 0.70869 35993 ft 471 kts
2026-05-07 17:36 47.26480 0.71436 36000 ft 471 kts
2026-05-07 17:36 47.33020 0.72123 36005 ft 471 kts
2026-05-07 17:37 47.39563 0.72799 36004 ft 471 kts
2026-05-07 17:37 47.47166 0.73592 36010 ft 472 kts
2026-05-07 17:38 47.52550 0.75291 36008 ft 476 kts 16°
2026-05-07 17:38 47.58838 0.78407 36011 ft 476 kts 16°
2026-05-07 17:39 47.65116 0.81504 36013 ft 475 kts 16°
2026-05-07 17:39 47.71395 0.84594 36014 ft 475 kts 16°
2026-05-07 17:40 47.77675 0.87697 36016 ft 475 kts 16°
2026-05-07 17:40 47.83901 0.90792 36023 ft 475 kts 16°
2026-05-07 17:41 47.90162 0.93934 36021 ft 475 kts 17°
2026-05-07 17:41 47.96415 0.97106 36024 ft 474 kts 17°
2026-05-07 17:42 48.02656 1.00277 36023 ft 473 kts 17°
2026-05-07 17:42 48.08892 1.03447 36025 ft 473 kts 17°
2026-05-07 17:43 48.15124 1.06627 36025 ft 473 kts 17°
2026-05-07 17:43 48.21356 1.09821 36029 ft 473 kts 17°
2026-05-07 17:44 48.27536 1.12973 36031 ft 472 kts 17°
2026-05-07 17:44 48.33755 1.16138 36034 ft 472 kts 17°
2026-05-07 17:45 48.39974 1.19308 36034 ft 471 kts 17°
2026-05-07 17:45 48.46181 1.22495 36037 ft 471 kts 17°
2026-05-07 17:46 48.52380 1.25691 36034 ft 470 kts 17°
2026-05-07 17:46 48.58574 1.28864 36036 ft 470 kts 16°
2026-05-07 17:47 48.64777 1.31976 36034 ft 470 kts 16°
2026-05-07 17:47 48.70982 1.35089 36038 ft 470 kts 16°
2026-05-07 17:48 48.77180 1.38228 36037 ft 470 kts 17°
2026-05-07 17:48 48.83337 1.41362 36039 ft 469 kts 17°
2026-05-07 17:49 48.89526 1.44515 36048 ft 470 kts 17°
2026-05-07 17:49 48.95725 1.47669 36051 ft 469 kts 16°
2026-05-07 17:50 49.02086 1.49644 36050 ft 466 kts
2026-05-07 17:50 49.08499 1.51139 36051 ft 466 kts
2026-05-07 17:51 49.14915 1.52663 36054 ft 466 kts
2026-05-07 17:51 49.21280 1.54240 36055 ft 467 kts 11°
2026-05-07 17:52 49.27308 1.57990 36054 ft 471 kts 31°
2026-05-07 17:52 49.32367 1.64368 36051 ft 473 kts 43°
2026-05-07 17:53 49.37122 1.71335 36056 ft 473 kts 43°
2026-05-07 17:53 49.41883 1.78308 36057 ft 473 kts 43°
2026-05-07 17:54 49.46638 1.85300 36061 ft 473 kts 43°
2026-05-07 17:54 49.51370 1.92294 36058 ft 473 kts 43°
2026-05-07 17:55 49.56098 1.99284 36056 ft 473 kts 43°
2026-05-07 17:55 49.60853 2.06324 36054 ft 472 kts 43°
2026-05-07 17:56 49.65591 2.13368 36051 ft 472 kts 43°
2026-05-07 17:56 49.70310 2.20413 36047 ft 472 kts 43°
2026-05-07 17:57 49.74235 2.26272 36044 ft 472 kts 43°
2026-05-07 17:57 49.79718 2.34496 36040 ft 472 kts 43°
2026-05-07 17:58 49.84420 2.41591 36047 ft 472 kts 43°
2026-05-07 17:58 49.89102 2.48672 36048 ft 472 kts 43°
2026-05-07 17:59 49.93823 2.55822 36052 ft 472 kts 43°
2026-05-07 17:59 49.98524 2.62949 36056 ft 472 kts 43°
2026-05-07 18:00 50.03204 2.70068 36054 ft 472 kts 43°
2026-05-07 18:00 50.07839 2.77152 36056 ft 473 kts 43°
2026-05-07 18:01 50.12601 2.84446 35524 ft 473 kts 43°
2026-05-07 18:01 50.14919 2.88000 35035 ft 472 kts 43°
2026-05-07 18:01 50.17257 2.91593 34552 ft 471 kts 43°
2026-05-07 18:02 50.21913 2.98774 33530 ft 470 kts 43°
2026-05-07 18:02 50.24241 3.02369 32992 ft 470 kts 43°
2026-05-07 18:02 50.26566 3.05961 32462 ft 471 kts 43°
2026-05-07 18:03 50.28898 3.09572 31938 ft 472 kts 43°
2026-05-07 18:03 50.31232 3.13191 31422 ft 473 kts 43°
2026-05-07 18:03 50.33567 3.16821 30918 ft 473 kts 43°
2026-05-07 18:03 50.35910 3.20466 30419 ft 474 kts 43°
2026-05-07 18:04 50.38240 3.24094 29902 ft 475 kts 43°
2026-05-07 18:04 50.40583 3.27747 29325 ft 476 kts 43°
2026-05-07 18:04 50.42934 3.31419 28762 ft 477 kts 43°
2026-05-07 18:04 50.45290 3.35104 28192 ft 478 kts 44°
2026-05-07 18:05 50.47647 3.38795 27648 ft 479 kts 44°
2026-05-07 18:05 50.50004 3.42490 26912 ft 479 kts 44°
2026-05-07 18:05 50.52348 3.46173 26064 ft 474 kts 44°
2026-05-07 18:05 50.54743 3.49712 25234 ft 468 kts 38°
2026-05-07 18:06 50.57332 3.52705 24439 ft 463 kts 33°
2026-05-07 18:06 50.59976 3.55593 23659 ft 460 kts 33°
2026-05-07 18:06 50.62593 3.58454 22751 ft 457 kts 33°
2026-05-07 18:06 50.65200 3.61312 21862 ft 455 kts 34°
2026-05-07 18:07 50.67788 3.64159 21000 ft 452 kts 34°
2026-05-07 18:07 50.70357 3.66996 20152 ft 450 kts 34°
2026-05-07 18:07 50.72883 3.69793 19359 ft 447 kts 34°
2026-05-07 18:07 50.75465 3.72657 18552 ft 445 kts 34°
2026-05-07 18:08 50.77977 3.75512 17680 ft 443 kts 37°
2026-05-07 18:08 50.80417 3.78460 16796 ft 440 kts 36°
2026-05-07 18:08 50.82908 3.81275 15948 ft 438 kts 34°
2026-05-07 18:08 50.85391 3.84077 15110 ft 435 kts 38°
2026-05-07 18:09 50.87596 3.87254 14364 ft 432 kts 47°
2026-05-07 18:09 50.89439 3.90993 13682 ft 426 kts 57°
2026-05-07 18:09 50.90836 3.95106 12926 ft 422 kts 67°
2026-05-07 18:09 50.91772 3.99487 12184 ft 417 kts 76°
2026-05-07 18:10 50.92434 4.03922 11468 ft 412 kts 74°
2026-05-07 18:10 50.93273 4.08218 10971 ft 402 kts 72°
2026-05-07 18:10 50.94107 4.12388 10478 ft 392 kts 72°
2026-05-07 18:10 50.94914 4.16423 9991 ft 371 kts 72°
2026-05-07 18:11 50.95660 4.20151 9466 ft 349 kts 72°
2026-05-07 18:11 50.96147 4.22587 9104 ft 336 kts 72°
2026-05-07 18:11 50.97053 4.27105 8411 ft 315 kts 72°
2026-05-07 18:11 50.97699 4.30324 8106 ft 295 kts 72°
2026-05-07 18:12 50.98308 4.33355 7845 ft 284 kts 72°
2026-05-07 18:12 50.98903 4.36317 7586 ft 281 kts 72°
2026-05-07 18:12 50.99494 4.39263 7326 ft 279 kts 72°
2026-05-07 18:12 51.00082 4.42193 7087 ft 278 kts 72°
2026-05-07 18:13 51.00666 4.45106 6845 ft 276 kts 72°
2026-05-07 18:13 51.01247 4.48007 6589 ft 274 kts 72°
2026-05-07 18:13 51.01822 4.50882 6307 ft 272 kts 72°
2026-05-07 18:13 51.02394 4.53744 6112 ft 271 kts 72°
2026-05-07 18:14 51.02962 4.56598 6079 ft 270 kts 73°
2026-05-07 18:14 51.03528 4.59445 6081 ft 270 kts 72°
2026-05-07 18:14 51.04086 4.62259 6081 ft 270 kts 73°
2026-05-07 18:14 51.04650 4.65108 6087 ft 270 kts 73°
2026-05-07 18:15 51.05216 4.67964 6084 ft 270 kts 72°
2026-05-07 18:15 51.05775 4.70829 6080 ft 270 kts 76°
2026-05-07 18:15 51.05884 4.73785 5919 ft 271 kts 98°
2026-05-07 18:15 51.05541 4.76707 5528 ft 268 kts 102°
2026-05-07 18:16 51.05129 4.79582 5148 ft 265 kts 105°
2026-05-07 18:16 51.04270 4.82120 4760 ft 263 kts 133°
2026-05-07 18:16 51.02796 4.83799 4369 ft 261 kts 150°
2026-05-07 18:16 51.01199 4.85129 4039 ft 256 kts 153°
2026-05-07 18:17 50.99610 4.86183 3996 ft 239 kts 170°
2026-05-07 18:17 50.98026 4.85847 4007 ft 232 kts 209°
2026-05-07 18:17 50.96971 4.84009 4008 ft 231 kts 249°
2026-05-07 18:17 50.96542 4.81640 3985 ft 218 kts 253°
2026-05-07 18:18 50.96078 4.79371 3785 ft 214 kts 251°
2026-05-07 18:18 50.95579 4.77155 3504 ft 212 kts 250°
2026-05-07 18:18 50.95079 4.74964 3209 ft 211 kts 250°
2026-05-07 18:18 50.94581 4.72782 2923 ft 209 kts 250°
2026-05-07 18:19 50.94095 4.70650 2644 ft 202 kts 250°
2026-05-07 18:19 50.93621 4.68579 2377 ft 197 kts 250°
2026-05-07 18:19 50.93159 4.66560 2108 ft 192 kts 250°
2026-05-07 18:19 50.92721 4.64645 1847 ft 177 kts 250°
2026-05-07 18:20 50.92313 4.62863 1630 ft 166 kts 250°
2026-05-07 18:20 50.91943 4.61251 1417 ft 152 kts 250°
2026-05-07 18:20 50.91589 4.59709 1208 ft 147 kts 250°
2026-05-07 18:20 50.91240 4.58190 994 ft 145 kts 250°
2026-05-07 18:21 50.90902 4.56688 778 ft 144 kts 251°
2026-05-07 18:21 50.90563 4.55194 560 ft 144 kts 250°
2026-05-07 18:21 50.90209 4.53710 382 ft 144 kts 250°
2026-05-07 18:21 50.89866 4.52219 186 ft 144 kts 251°
2026-05-07 18:22 50.89557 4.50828 163 ft 115 kts 248°
2026-05-07 18:22 50.89468 4.50472 166 ft 99 kts 249°
2026-05-07 18:22 50.89213 4.49380 168 ft 46 kts 250°
2026-05-07 18:22 50.89152 4.49060 169 ft 10 kts 292°
2026-05-07 18:23 50.89211 4.49044 167 ft 10 kts 15°
2026-05-07 18:23 50.89293 4.49078 166 ft 14 kts 13°
2026-05-07 18:23 50.89402 4.49120 163 ft 18 kts 15°
2026-05-07 18:23 50.89519 4.49171 164 ft 14 kts 14°
2026-05-07 18:24 50.89613 4.49238 163 ft 12 kts 36°
2026-05-07 18:24 50.89701 4.49285 162 ft 15 kts 15°
2026-05-07 18:24 50.89817 4.49334 160 ft 19 kts 13°
2026-05-07 18:24 50.89949 4.49385 156 ft 21 kts 15°
2026-05-07 18:25 50.90083 4.49442 148 ft 23 kts 14°
2026-05-07 18:25 50.90220 4.49497 142 ft 20 kts 14°
2026-05-07 18:25 50.90355 4.49552 136 ft 14 kts 15°
2026-05-07 18:25 50.90455 4.49533 131 ft 16 kts 287°
2026-05-07 18:26 50.90412 4.49358 133 ft 18 kts 244°
2026-05-07 18:26 50.90370 4.49212 134 ft 11 kts 245°
2026-05-07 18:26 50.90341 4.49113 135 ft 8 kts 244°
2026-05-07 18:26 50.90340 4.49041 134 ft 8 kts 307°
2026-05-07 18:27 50.90389 4.48998 128 ft 3 kts 335°
2026-05-07 18:27 50.90399 4.48991 128 ft 0 kts 335°